Location: Elmsmere
(40.9284°N, 73.8207°W)
Time: 10:00:09
(UTC+00:00)

Cosmos 1812 Rocket - Pass Details

Date: 29 October 2020
Orbit: 605 x 633 km, 82.5° (Epoch: 23 November)

Event Time Altitude Azimuth Distance (km) Brightness Sun altitude
Rises 23:47:44 0° 194° (SSW) 2,889 7.2 -21.9°
Reaches altitude 10° 23:49:59 10° 197° (SSW) 1,983 6.3 -22.4°
Maximum altitude 23:54:20 64° 279° (W) 687 3.9 -23.2°
Drops below altitude 10° 23:58:42 10° 1° (N) 1,981 6.1 -24.0°
Sets 00:00:56 0° 5° (N) 2,886 7.0 -24.4°
